#timestamp,LO_Frequency,Hit,StdDev 
1635487215.1,286047006.8,N
1635487216.0,286047006.8,N
1635487235.8,286047008.9,N
1635487255.7,286047002.9,N
1635487275.5,286047006.0,N
1635487295.3,286047005.7,N
1635487315.2,286047008.9,N
1635487335.9,286047010.5,N
1635487355.7,286047011.9,N
1635487375.6,286047013.8,Y
1635487395.4,286047010.1,P
1635487415.3,286047011.6,P
1635487435.1,286047009.9,N
1635487436.0,286047009.9,N
1635487455.8,286047010.7,Y
1635487475.7,286047002.4,P
1635487495.5,286047004.4,N
1635487515.3,286047004.1,N
1635487535.2,286047006.8,N
1635487555.0,286047007.7,Y
1635487555.9,286047007.7,P
1635487575.8,286047002.9,N
1635487595.6,286047008.7,P
1635487615.4,286047008.1,Y
1635487635.3,286047005.6,P
1635487655.1,286047006.1,P
1635487675.9,286047010.0,P
1635487695.7,286047005.3,N
1635487715.5,286046999.5,N
1635487735.4,286046993.2,N
1635487755.2,286046985.4,N
1635487775.0,286046979.4,N
1635487775.9,286046979.4,N
1635487795.8,286046975.4,N
1635487815.6,286046971.0,N
1635487835.5,286046970.4,N
1635487855.3,286046962.6,N
1635487875.1,286046953.7,N
1635487895.9,286046947.7,N
1635487915.7,286046944.9,N
1635487935.5,286046943.4,N
1635487955.4,286046940.8,N
1635487975.2,286046939.7,N
1635487995.0,286046942.9,N
1635487996.0,286046942.9,N
1635488015.8,286046946.0,N
1635488035.6,286046947.7,N
1635488055.5,286046954.7,N
1635488075.3,286046951.0,N
1635488095.1,286046947.0,N
1635488115.9,286046945.9,N
1635488135.7,286046943.2,N
1635488155.5,286046940.1,N
1635488175.4,286046937.3,N
1635488195.2,286046929.9,N
1635488215.1,286046927.2,Y
1635488216.0,286046927.2,P
1635488235.8,286046971.2,N
1635488255.6,286046970.6,N
1635488275.5,286046962.6,N
1635488295.3,286046957.1,N
1635488315.2,286046952.1,Y
1635488335.9,286046992.6,P
1635488355.7,286046992.0,N
1635488375.6,286046991.8,N
1635488395.4,286046993.0,N
1635488415.2,286046991.9,N
1635488435.1,286046995.8,N
1635488436.0,286046995.8,N
1635488455.8,286046998.3,N
1635488475.7,286047002.2,N
1635488495.5,286047003.2,N
1635488515.3,286047004.5,N
1635488535.2,286047012.0,N
1635488555.0,286047010.6,N
1635488555.9,286047010.6,N
1635488575.7,286047012.2,N
1635488595.6,286047014.2,N
1635488615.4,286047021.0,N
1635488635.3,286047025.9,N
1635488655.1,286047029.7,N
1635488656.0,286047029.7,N
1635488675.8,286047034.8,N
1635488695.7,286047040.5,N
1635488715.5,286047041.5,N
1635488735.3,286047035.4,N
1635488755.2,286047038.7,N
1635488775.0,286047040.4,N
1635488775.9,286047040.4,N
1635488795.8,286047045.5,N
1635488815.6,286047051.2,N
1635488835.4,286047052.9,N
1635488855.3,286047055.7,N
1635488875.1,286047058.3,N
1635488895.9,286047063.0,Y
1635488915.7,286047040.9,P
1635488935.5,286047038.7,P
1635488955.4,286047042.9,P
1635488975.2,286047046.8,Y
1635488995.0,286047016.8,P
1635488995.9,286047016.8,N
1635489015.8,286047012.9,N
1635489035.6,286047010.2,N
1635489055.5,286047007.7,N
1635489075.3,286047008.0,N
1635489095.1,286047009.5,N
1635489115.9,286047008.0,N
1635489135.7,286047009.4,N
1635489155.5,286047011.7,N
1635489175.4,286047009.5,N
1635489195.2,286047013.6,N
1635489215.1,286047014.4,N
1635489216.0,286047014.4,N
1635489235.8,286047019.3,N
1635489255.6,286047019.4,N
1635489275.5,286047021.8,Y
1635489295.3,286047004.9,P
1635489315.2,286047002.2,N
1635489335.0,286046993.6,N
1635489335.9,286046993.6,N
1635489355.7,286046992.3,N
1635489375.6,286046993.4,N
1635489395.4,286046993.3,N
1635489415.3,286046996.9,N
1635489435.1,286046996.4,N
1635489436.0,286046996.4,N
1635489455.8,286046992.0,N
1635489475.7,286046987.8,N
1635489495.5,286046980.4,N
1635489515.4,286046972.0,Y
1635489535.2,286046970.2,P
1635489555.0,286046966.4,N
1635489555.9,286046966.4,N
1635489575.8,286046968.3,N
1635489595.6,286046972.4,N
1635489615.5,286046977.0,N
1635489635.3,286046978.3,N
1635489655.1,286046973.2,N
1635489675.9,286046967.4,Y
1635489695.7,286046988.6,P
1635489715.5,286046986.4,N
1635489735.4,286046982.8,N
1635489755.2,286046976.1,Y
1635489775.1,286046985.9,P
1635489776.0,286046985.9,P
1635489795.8,286046978.5,P
1635489815.7,286046978.7,Y
1635489835.5,286047002.3,P
1635489855.3,286047011.3,N
1635489875.2,286047017.4,N
1635489895.0,286047021.8,N
1635489895.9,286047021.8,N
1635489915.7,286047018.7,N
1635489935.6,286047015.5,N
1635489955.4,286047000.4,N
1635489975.3,286046992.5,N
1635489995.1,286046984.5,N
1635490015.8,286046971.3,N
1635490035.6,286046953.9,N
1635490055.4,286046943.1,N
1635490075.2,286046938.6,N
1635490095.1,286046943.5,N
1635490096.0,286046943.5,N
1635490115.8,286046946.7,N
1635490135.7,286046948.9,N
1635490155.5,286046950.5,N
1635490175.3,286046951.4,N
1635490195.2,286046952.6,N
1635490215.0,286046953.0,N
1635490215.9,286046953.0,N
1635490235.8,286046948.1,N
1635490255.6,286046941.6,N
1635490275.4,286046946.8,N
1635490295.3,286046947.1,N
1635490315.1,286046942.7,N
1635490335.8,286046941.9,N
1635490355.7,286046941.3,N
1635490375.5,286046936.0,N
1635490395.4,286046938.7,N
1635490415.2,286046939.8,N
1635490435.0,286046942.0,N
1635490435.9,286046942.0,N
1635490455.8,286046943.2,N
1635490475.6,286046945.2,N
1635490495.4,286046945.7,Y
1635490515.3,286047006.0,P
1635490535.1,286047014.5,N
1635490555.9,286047024.6,N
1635490575.7,286047034.5,N
1635490595.5,286047042.4,N
1635490615.4,286047047.1,N
1635490635.2,286047048.4,N
1635490655.0,286047050.9,N
1635490655.9,286047050.9,N
1635490675.8,286047047.9,N
1635490695.6,286047048.9,N
1635490715.5,286047053.9,N
1635490735.3,286047055.0,N
1635490755.1,286047058.6,N
1635490775.9,286047057.6,N
1635490795.7,286047061.1,N
